This demonstration page uses our WeatherBlox Daily Observations layout. Learn more.

Left ArrowRight Arrow

Hourly Observations for September 24, 2015

Temp ( °F °C ) Dew Point ( °F °C ) Humidity (%) Winds ( mph kmh ) Pressure ( in mb ) Visibility ( mi km ) Precip ( " mm )
12:53 am 00:53 Mostly Cloudy 70 21.1 61 16.1 73 73 S 15 24 29.93 1014 10 16 0.00 0.00
1:53 am 01:53 Partly Cloudy 70 21.1 61 16.1 73 73 S 12 19 29.95 1014 10 16 0.00 0.00
2:53 am 02:53 Mostly Cloudy 69 20.6 62 16.7 78 78 SSW 12 19 29.95 1014 10 16 0.00 0.00
3:53 am 03:53 Mostly Clear 68 20 62 16.7 81 81 SSW 9 15 29.96 1014 10 16 0.00 0.00
4:53 am 04:53 Partly Cloudy 67 19.4 62 16.7 84 84 SSW 13 20 29.95 1014 10 16 0.00 0.00
5:53 am 05:53 Clear 64 17.8 61 16.1 90 90 W 8 13 29.97 1015 9 14 0.00 0.00
6:53 am 06:53 Mostly Cloudy 64 17.8 60 15.6 87 87 W 10 17 29.99 1016 10 16 0.00 0.00
7:53 am 07:53 Sunny 63 17.2 59 15 87 87 WSW 7 11 30.01 1016 10 16 0.00 0.00
8:53 am 08:53 Mostly Cloudy 64 17.8 60 15.6 87 87 WSW 9 15 30.03 1017 10 16 0.00 0.00
9:27 am 09:27 Cloudy 65 18.3 60 15.6 84 84 WSW 7 11 30.03 1017 10 16 0.00 0.00
9:53 am 09:53 Cloudy 67 19.4 60 15.6 79 79 W 7 11 30.04 1017 10 16 0.00 0.00
10:53 am 10:53 Mostly Cloudy 71 21.7 61 16.1 71 71 W 13 20 30.04 1017 10 16 0.00 0.00
11:53 am 11:53 Cloudy 72 22.2 62 16.7 71 71 NW 9 15 30.05 1018 10 16 0.00 0.00
12:53 pm 12:53 Cloudy 73 22.8 62 16.7 69 69 WNW 14 22 30.05 1018 10 16 0.00 0.00
1:08 pm 13:08 Cloudy 73 23 63 17 69 69 WNW 13 20 30.03 1017 10 16 0.00 0.00
1:20 pm 13:20 Cloudy 73 23 63 17 69 69 NW 13 20 30.03 1017 10 16 0.00 0.00
1:33 pm 13:33 Cloudy 74 23.3 62 16.7 67 67 NW 12 19 30.03 1017 10 16 0.00 0.00
1:53 pm 13:53 Cloudy 74 23.3 62 16.7 67 67 WNW 10 17 30.05 1018 10 16 0.00 0.00
2:53 pm 14:53 Cloudy 72 22.2 62 16.7 71 71 NW 14 22 30.05 1018 10 16 0.00 0.00
3:53 pm 15:53 Cloudy 74 23.3 62 16.7 67 67 NNW 14 22 30.05 1018 10 16 0.00 0.00
4:53 pm 16:53 Cloudy with Light Rain 69 20.6 64 17.8 84 84 NW 7 11 30.07 1018 10 16 0.00 0.03
5:53 pm 17:53 Mostly Cloudy 71 21.7 63 17.2 76 76 NW 8 13 30.06 1018 10 16 0.00 0.03
6:53 pm 18:53 Cloudy 69 20.6 63 17.2 81 81 NW 8 13 30.08 1019 10 16 0.00 0.00
7:53 pm 19:53 Cloudy 69 20.6 62 16.7 78 78 NW 12 19 30.09 1019 10 16 0.00 0.00
8:53 pm 20:53 Cloudy 66 18.9 63 17.2 90 90 NNW 8 13 30.11 1020 10 16 0.00 0.03
9:53 pm 21:53 Clear 65 18.3 62 16.7 90 90 NW 6 9 30.11 1020 10 16 0.00 0.00
10:53 pm 22:53 Cloudy 66 18.9 62 16.7 87 87 NW 10 17 30.11 1020 10 16 0.00 0.00
11:53 pm 23:53 Cloudy 66 18.9 62 16.7 87 87 NW 6 9 30.11 1020 10 16 0.00 0.00

Powered by AerisWeather